Location: El Gandul
(32.4984°N, 116.7135°W)
Time: 14:36:58
(UTC+00:00)

Cosmos 2278 Rocket - Pass Details

Date: 03 August 2024
Orbit: 841 x 844 km, 71.0° (Epoch: 08 September)

Event Time Altitude Azimuth Distance (km) Brightness Sun altitude
Rises 12:08:51 0° 342° (NNW) 3,400 5.5 -11.2°
Reaches altitude 10° 12:11:19 10° 344° (NNW) 2,463 4.8 -10.7°
Maximum altitude 12:16:58 72° 69° (ENE) 884 2.5 -9.7°
Drops below altitude 10° 12:22:35 10° 154° (SSE) 2,452 4.6 -8.6°
Sets 12:25:01 0° 156° (SSE) 3,384 5.3 -8.2°
